Terminal Aerodrome Forecast
Issued by NWS

Home | Current Version | Previous Version | Text Only | Print | Product List | Glossary On
Versions: 1 2 3 4 5 6 7 8 9 10 11 12 13 14 15 16
000
FTUS46 KMFR 222300
TAFRBG
TAF
KRBG 222339Z 2300/2324 32010G16KT P6SM FEW050
     FM230400 35003KT P6SM SKC
     FM232200 35010G16KT P6SM SKC=

USA.gov is the U.S. government's official web portal to all federal, state and local government web resources and services.